Weather History for Perryton, TX

Change the Weather History Date:

Wednesday, December 28, 2011

  Actual Average Record
Temperature  
Mean Temperature 32 °F -  
Max Temperature 42 °F 44 °F 70 °F (1976)
Min Temperature 21 °F 19 °F 1 °F (1987)
Degree Days  
Heating Degree Days 34    
Moisture  
Dew Point 26 °F    
Average Humidity 79    
Maximum Humidity 100    
Minimum Humidity 65    
Precipitation  
Precipitation 0.00 in - - ()
Sea Level Pressure  
Sea Level Pressure 30.03 in    
Wind  
Wind Speed 10 mph (WNW)    
Max Wind Speed 17 mph    
Max Gust Speed 16 mph    
Visibility 10 miles    
Events      
Averages and records for this station are not official NWS values.
T = Trace of Precipitation, MM = Missing Value Source: NWS Daily Summary

Daily Weather History Graph

Daily Weather History Graph

Search for Another Location

Airport:

Trip Planner

Search our weather history database for the weather conditions in past years. The results will help you decide how hot, cold, wet, or windy it might be!

Date:

Astronomy

Dec. 28, 2011 Rise Set
Actual Time 7:53 AM CST 5:35 PM CST
Civil Twilight 7:24 AM CST 6:04 PM CST
Nautical Twilight 6:52 AM CST 6:36 PM CST
Astronomical Twilight 6:21 AM CST 7:07 PM CST
Moon 10:27 AM CST (12/28) 10:05 PM CST (12/28)
Length of Visible Light 10h 39m
Length of Day
9h 41m
Waxing Crescent, 18% of the Moon is Illuminated
Dec 28
Waxing Crescent
Jan 1
First Quarter
Jan 9
Full
Jan 16
Last Quarter
Jan 23
New

Hourly Weather History & Observations

Time (CST) Temp. Windchill Dew Point Humidity Pressure Visibility Wind Dir Wind Speed Gust Speed Precip Events Conditions
12:15 AM 26.6 °F 17.5 °F 23.0 °F 86% 29.99 in 10.0 mi South 9.2 mph - N/A   Clear
12:35 AM 26.6 °F 19.1 °F 23.0 °F 86% 29.99 in 10.0 mi South 6.9 mph - N/A   Clear
12:55 AM 28.4 °F 21.2 °F 24.8 °F 86% 29.98 in 10.0 mi SSW 6.9 mph - N/A   Clear
1:15 AM 28.4 °F 23.3 °F 26.6 °F 93% 29.99 in 10.0 mi SW 4.6 mph - N/A   Clear
1:35 AM 28.4 °F 18.0 °F 23.0 °F 80% 30.00 in 10.0 mi NW 12.7 mph 16.1 mph N/A   Clear
1:55 AM 26.6 °F 19.1 °F 23.0 °F 86% 29.99 in 10.0 mi NW 6.9 mph - N/A   Clear
2:15 AM 26.6 °F 20.0 °F 23.0 °F 86% 29.99 in 10.0 mi NW 5.8 mph - N/A   Clear
2:35 AM 24.8 °F 19.1 °F 23.0 °F 93% 29.99 in 10.0 mi North 4.6 mph - N/A   Clear
2:55 AM 23.0 °F 15.8 °F 21.2 °F 93% 29.99 in 10.0 mi North 5.8 mph - N/A   Clear
3:15 AM 21.2 °F 10.1 °F 21.2 °F 100% 30.00 in 10.0 mi NNW 10.4 mph - N/A   Clear
3:35 AM 21.2 °F 9.5 °F 19.4 °F 93% 30.00 in 10.0 mi NW 11.5 mph - N/A   Clear
3:55 AM 23.0 °F 10.6 °F 19.4 °F 86% 30.01 in 10.0 mi NNW 13.8 mph - N/A   Clear
4:15 AM 23.0 °F 10.1 °F 19.4 °F 86% 30.02 in 10.0 mi NNW 15.0 mph - N/A   Clear
4:35 AM 23.0 °F 9.2 °F 17.6 °F 80% 30.02 in 10.0 mi NNW 17.3 mph - N/A   Clear
4:55 AM 23.0 °F 10.1 °F 17.6 °F 80% 30.02 in 10.0 mi NNW 15.0 mph - N/A   Clear
5:15 AM 23.0 °F 11.7 °F 17.6 °F 80% 30.02 in 10.0 mi NNW 11.5 mph - N/A   Clear
5:35 AM 21.2 °F 10.9 °F 17.6 °F 86% 30.02 in 10.0 mi NW 9.2 mph - N/A   Clear
5:55 AM 21.2 °F 9.5 °F 17.6 °F 86% 30.03 in 10.0 mi NW 11.5 mph - N/A   Clear
6:15 AM 23.0 °F 11.7 °F 17.6 °F 80% 30.04 in 10.0 mi NW 11.5 mph - N/A   Clear
6:35 AM 23.0 °F 11.7 °F 17.6 °F 80% 30.05 in 10.0 mi NW 11.5 mph - N/A   Clear
6:55 AM 21.2 °F 11.7 °F 17.6 °F 86% 30.05 in 10.0 mi NW 8.1 mph - N/A   Clear
7:15 AM 23.0 °F 13.1 °F 17.6 °F 80% 30.06 in 10.0 mi NNW 9.2 mph - N/A   Clear
7:35 AM 23.0 °F 13.1 °F 19.4 °F 86% 30.05 in 10.0 mi NW 9.2 mph - N/A   Clear
7:55 AM 24.8 °F 13.4 °F 19.4 °F 80% 30.05 in 10.0 mi NW 12.7 mph - N/A   Clear
8:15 AM 26.6 °F 14.7 °F 19.4 °F 74% 30.05 in 10.0 mi NW 15.0 mph - N/A   Clear
8:55 AM 28.4 °F 18.5 °F 21.2 °F 74% 30.06 in 10.0 mi NW 11.5 mph - N/A   Clear
9:15 AM 30.2 °F 19.3 °F 23.0 °F 75% 30.07 in 10.0 mi NW 15.0 mph - N/A   Clear
9:35 AM 30.2 °F 19.3 °F 23.0 °F 75% 30.08 in 10.0 mi NW 15.0 mph - N/A   Clear
9:55 AM 32.0 °F 22.5 °F 24.8 °F 75% 30.09 in 10.0 mi NNW 12.7 mph - N/A   Clear
10:15 AM 32.0 °F 23.6 °F 26.6 °F 80% 30.09 in 10.0 mi NNW 10.4 mph - N/A   Clear
10:35 AM 33.8 °F 24.3 °F 26.6 °F 75% 30.09 in 10.0 mi NW 13.8 mph - N/A   Clear
10:55 AM 33.8 °F 24.8 °F 28.4 °F 81% 30.10 in 10.0 mi NW 12.7 mph - N/A   Clear
11:15 AM 37.4 °F 30.3 °F 28.4 °F 70% 30.10 in 10.0 mi NW 10.4 mph - N/A   Clear
11:35 AM 37.4 °F 30.8 °F 30.2 °F 75% 30.10 in 10.0 mi WNW 9.2 mph - N/A   Clear
11:55 AM 39.2 °F 32.5 °F 30.2 °F 70% 30.09 in 10.0 mi WNW 10.4 mph - N/A   Clear
12:15 PM 41.0 °F 34.3 °F 30.2 °F 65% 30.08 in 10.0 mi WNW 11.5 mph - N/A   Clear
12:35 PM 41.0 °F 34.7 °F 32.0 °F 70% 30.07 in 10.0 mi WNW 10.4 mph - N/A   Clear
12:55 PM 41.0 °F 35.2 °F 32.0 °F 70% 30.05 in 10.0 mi WNW 9.2 mph - N/A   Clear
1:15 PM 41.0 °F 35.8 °F 32.0 °F 70% 30.05 in 10.0 mi WNW 8.1 mph - N/A   Clear
1:35 PM 41.0 °F 35.2 °F 32.0 °F 70% 30.04 in 10.0 mi WNW 9.2 mph - N/A   Clear
1:55 PM 42.8 °F 37.5 °F 32.0 °F 66% 30.03 in 10.0 mi WNW 9.2 mph - N/A   Clear
2:15 PM 42.8 °F 37.5 °F 32.0 °F 66% 30.03 in 10.0 mi WNW 9.2 mph - N/A   Clear
2:35 PM 41.0 °F 34.7 °F 32.0 °F 70% 30.03 in 10.0 mi WNW 10.4 mph - N/A   Clear
2:55 PM 42.8 °F 37.5 °F 32.0 °F 66% 30.03 in 10.0 mi WNW 9.2 mph - N/A   Clear
3:15 PM 42.8 °F 37.5 °F 32.0 °F 66% 30.02 in 10.0 mi West 9.2 mph - N/A   Clear
3:35 PM 42.8 °F 37.0 °F 32.0 °F 66% 30.02 in 10.0 mi West 10.4 mph - N/A   Clear
3:55 PM 41.0 °F 35.2 °F 32.0 °F 70% 30.02 in 10.0 mi West 9.2 mph - N/A   Clear
4:15 PM 41.0 °F 35.2 °F 32.0 °F 70% 30.02 in 10.0 mi West 9.2 mph - N/A   Clear
4:35 PM 39.2 °F 33.0 °F 32.0 °F 75% 30.03 in 10.0 mi West 9.2 mph - N/A   Clear
4:55 PM 37.4 °F 31.4 °F 32.0 °F 81% 30.03 in 10.0 mi West 8.1 mph - N/A   Clear
5:15 PM 35.6 °F 29.2 °F 32.0 °F 87% 30.03 in 10.0 mi West 8.1 mph - N/A   Clear
5:35 PM 35.6 °F 29.2 °F 32.0 °F 87% 30.02 in 10.0 mi West 8.1 mph - N/A   Clear
5:55 PM 35.6 °F 28.6 °F 30.2 °F 81% 30.03 in 10.0 mi West 9.2 mph - N/A   Clear
6:15 PM 35.6 °F 28.6 °F 32.0 °F 87% 30.03 in 10.0 mi West 9.2 mph - N/A   Clear
6:35 PM 35.6 °F 28.6 °F 30.2 °F 81% 30.02 in 10.0 mi WSW 9.2 mph - N/A   Clear
7:15 PM 33.8 °F 27.0 °F 30.2 °F 87% 30.02 in 10.0 mi SW 8.1 mph - N/A   Clear
7:35 PM 33.8 °F 26.4 °F 30.2 °F 87% 30.02 in 10.0 mi WSW 9.2 mph - N/A   Clear
7:55 PM 37.4 °F 30.3 °F 30.2 °F 75% 30.02 in 10.0 mi WSW 10.4 mph - N/A   Clear
8:15 PM 37.4 °F 30.3 °F 30.2 °F 75% 30.02 in 10.0 mi WSW 10.4 mph - N/A   Clear
8:35 PM 37.4 °F 30.3 °F 30.2 °F 75% 30.02 in 10.0 mi WSW 10.4 mph - N/A   Clear
8:55 PM 41.0 °F 33.5 °F 30.2 °F 65% 30.02 in 10.0 mi WSW 13.8 mph - N/A   Clear
9:15 PM 41.0 °F 34.3 °F 30.2 °F 65% 30.01 in 10.0 mi SW 11.5 mph - N/A   Clear
9:35 PM 37.4 °F 30.3 °F 30.2 °F 75% 30.00 in 10.0 mi SW 10.4 mph - N/A   Clear
9:55 PM 35.6 °F 27.5 °F 30.2 °F 81% 29.99 in 10.0 mi SW 11.5 mph - N/A   Clear
10:35 PM 35.6 °F 28.0 °F 30.2 °F 81% 29.99 in 10.0 mi SW 10.4 mph - N/A   Clear
10:55 PM 35.6 °F 28.0 °F 30.2 °F 81% 29.99 in 10.0 mi SW 10.4 mph - N/A   Clear
11:15 PM 37.4 °F 29.3 °F 30.2 °F 75% 29.99 in 10.0 mi WSW 12.7 mph - N/A   Clear
11:35 PM 35.6 °F 27.1 °F 30.2 °F 81% 29.99 in 10.0 mi WSW 12.7 mph - N/A   Clear
11:55 PM 35.6 °F 27.1 °F 30.2 °F 81% 29.98 in 10.0 mi WSW 12.7 mph - N/A   Clear